STARLINK-32262, 60938

Orbit data source: Space-Track

STARLINK-32262, 60938 is a payload satellite owned by SpaceX/Seattle (US) in LEO that was launched on Sat, 31 Aug 2024 UTC via an FALCON 9 launch vehicle from the Air Force Western Test Range (AFWTR). Payloads include a variety of satellites, spacecraft, and rockets equipped with specific instruments for various scientific and technological missions. These include communications satellites like Starlink; space stations such as the ISS; scientific satellites like the Hubble; Earth observation satellites from companies like Planet Labs, Umbra, and HawkEye 360; GPS; miniature CubeSats for education and research; and military/defense satellites.

Loading next visibility...
STARLINK-32262 details
Identifier
60938, 2024-155Q
Orbit
LEO
Last TLE update10 hours ago
Origin
Flag of USSpaceX/Seattle (US)
ManufacturerSpaceX/Seattle
MissionOperational spacecraft
Bus & MotorSTARLINK V2M, Unknown motor
Mass730 kg wet, ~700 kg dry
Launch date (UTC)
2024-08-31 (5 months ago)
Launch vehicle
FALCON 9
Launch site
Air Force Western Test Range (AFWTR)
Object type
Payload
Rocket body
Debris
Shape & HBRUnknown
Radar Cross SectionLarge (>1 m²)

Expand to show TLE details & history

TLE from 10 hours ago
0 STARLINK-32262
1 60938U 24155Q   25015.08539132  .00000580  00000-0  31720-4 0  9997
2 60938  53.1603 261.4602 0001379  82.4068 277.7089 15.30195458 22471
Epoch: 2025-01-15T02:02Z
Definitive object data (Epoch: 2025-01-15T02:02:57.81Z)
Latitude-0.00003°
Longitude115.93651°
Altitude476.002 km
Speed7.629 km/s
True Right ascension17h 25m 50s
True Declination0° 00' 00"
Sunlit
Object was in daylight at TLE epoch
Visualization TLE readout
Latitude52.27077°
Longitude-171.59759°
Altitude480.621 km
Speed7.632 km/s
Apparent Right ascension23h 27m 19s
Apparent Declination8° 40' 10"
Sunlit
Object is in daylight
Visualization observer readout
Local Sidereal Time12:28:32
Azimuth19.731° NNE
Elevation-39.392°
Doppler factor1
Orbital elements
Apogee altitude476.43 km
Perigee altitude474.54 km
Semi-major axis6,853.622 km
Eccentricity0.0001379
Inclination53.1603°
RAAN261.4602°
Arg. of periapsis82.4068°
True anomaly277.69324°
Mean anomaly277.7089°
Eccentric anomaly277.70107°
Mean motion3.82528 °/min
BSTAR0.00003172
Orbital period94.11 mins
Loading maneuver chart data...
Loading historical data...
Loading historical data...
Loading historical data...
Loading historical data...
Loading historical data...
Loading historical data...
Loading historical data...

STARLINK-32262 Visibility forecast

Observer location: undefined°, undefined

Span
Click to sort rows by Start time (UTC) header in descending order
Start Az.
Max El. time (UTC)
Max El. Az.
Max El.
End time (UTC)
End Az.
4 mins2025-01-15 17:53:16.629Z159.731° S2025-01-15 17:55:16.629Z119.419° SE17.05°2025-01-15 17:57:16.629Z85.504° E
5 mins2025-01-15 19:30:16.629Z254.292° W2025-01-15 19:32:16.629Z309.978° NW37.763°2025-01-15 19:35:16.629Z38.073° NE
4 mins2025-01-16 00:27:16.629Z342.645° N2025-01-16 00:29:16.629Z24.072° NE20.755°2025-01-16 00:31:16.629Z66.929° ENE
5 mins2025-01-16 02:05:16.629Z298.24° NW2025-01-16 02:07:16.629Z244.26° WSW40.634°2025-01-16 02:10:16.629Z145.804° SSE
|